SL-14 DEB, 45292

Orbit data source: Space-Track

SL-14 DEB, 45292 is space debris in LEO originally from a launch on Thu, 15 Aug 1991 UTC launched from the Plesetsk Missile And Space Complex (PKMTR). Debris objects in space refer to the collection of defunct objects orbiting the Earth. Examples of debris include non-operational satellites, rocket bodies, and fragments generated from explosions, collisions, or faulty payload assembly.

Loading next visibility...
Identifier
45292, 1991-056AE
Orbit
LEO
Last TLE update
1 day ago
Origin
Manufacturer
Unknown
Mission
Spacecraft
Bus & Motor
Unknown
Mass
Unknown
Launch date (UTC)
1991-08-15 (34 years ago)
Launch vehicle
Unknown
Launch site
Plesetsk Missile And Space Complex (PKMTR)
Object type
Payload
Rocket body
Debris
Shape & HBR
Unknown
Radar Cross Section
Small (<0.1 m²)

Expand to show TLE details & history

TLE from 1 day ago
0 SL-14 DEB
1 45292U 91056AE  25198.44989381  .00002768  00000-0  49598-2 0  9994
2 45292  82.6285 357.7440 0091264 330.7628  28.8416 13.39791224262679
Epoch: 2025-07-17T10:47Z
TLE epoch observation values (Epoch: 2025-07-17T10:47:50.825Z)
Latitude
0.00001°
Longitude
-99.73331°
Altitude
1,053.172 km
Speed
7.354 km/s
True Right ascension
23h 50m 58s
True Declination
0° 00' 00"
Sunlit
Object was in daylight at epoch
Visualization orbit readout
Latitude
68.43888°
Longitude
-81.65806°
Altitude
1,135.689 km
Speed
7.284 km/s
Apparent Right ascension
20h 29m 56s
Apparent Declination
29° 08' 44"
Sunlit
Object is in daylight
Visualization observer readout
Local Sidereal Time
06:23:14
Azimuth
331.662° NNW
Elevation
-14.925°
Doppler factor
1
Orbital elements
Apogee altitude
1,175.581 km
Perigee altitude
1,038.952 km
Semi-major axis
7,485.404 km
Eccentricity
0.00913
Inclination
82.6285°
RAAN
357.744°
Arg. of periapsis
330.7628°
True anomaly
29.35117°
Mean anomaly
28.8416°
Eccentric anomaly
29.09587°
Mean motion
3.35135 °/min
Orbital period
107.42 mins
BSTAR
0.0049598
Loading maneuver chart data...
Loading SW <> Apogee altitude chart data...
Loading historical data...
Loading historical data...
Loading historical data...
Loading historical data...
Loading historical data...
Loading historical data...
Loading historical data...
|